OPS 4682 DEB, 55262

Orbit data source: Space-Track

OPS 4682 DEB, 55262 is space debris in LEO originally from a launch on Sat, 03 Apr 1965 UTC launched from the Air Force Western Test Range (AFWTR). Debris objects in space refer to the collection of defunct objects orbiting the Earth. Examples of debris include non-operational satellites, rocket bodies, and fragments generated from explosions, collisions, or faulty payload assembly.

Loading next visibility...
Identifier
55262, 1965-027HN
Orbit
LEO
Country
Flag of USUS
Related business
Manufacturer
Unknown
Mission
Spacecraft
Bus & Motor
Unknown
Mass
Unknown
Launch date (UTC)
1965-04-03 (61 years ago)
Launch vehicle
Unknown
Launch site
Air Force Western Test Range (AFWTR)
Object type
Payload
Rocket body
Debris
Shape & HBR
Unknown
Radar Cross Section
Medium (>0.1 m² and <1 m²)

Expand to show TLE details & history
Last TLE update: 5 days ago

TLE from 5 days ago
0 OPS 4682 DEB
1 55262U 65027HN  26203.90459774  .00000272  00000-0  92403-3 0  9990
2 55262  90.2488  12.3846 0031088  45.4277 314.9373 12.96336556507532
Epoch: 2026-07-22T21:42Z
TLE epoch observation values (Epoch: 2026-07-22T21:42:37.244Z)
Latitude
-0.00003°
Longitude
106.07617°
Altitude
1,262.578 km
Speed
7.232 km/s
True Right ascension
00h 49m 32s
True Declination
0° 00' 00"
Sunlit
Object was in daylight at epoch
Visualization orbit readout
Latitude
Unknown
Longitude
Unknown
Altitude
Unknown
Speed
Unknown
Apparent Right ascension
Unknown
Apparent Declination
Unknown
Sunlit
N/A
Visualization observer readout
Local Sidereal Time
12:11:15
Azimuth
Unknown
Elevation
Unknown
Doppler factor
Unknown
Orbital elements
Apogee altitude
1,297.394 km
Perigee altitude
1,249.819 km
Semi-major axis
7,651.743 km
Eccentricity
0.00311
Inclination
90.2488°
RAAN
12.3846°
Arg. of periapsis
45.4277°
True anomaly
314.68443°
Mean anomaly
314.9373°
Eccentric anomaly
314.81093°
Mean motion
3.24267 °/min
Orbital period
111.02 mins
BSTAR
0.00092403
Loading maneuver chart data...
Computing Atmospheric mass density...
Loading historical data...
Loading historical data...
Loading historical data...
Loading historical data...
Loading historical data...
Loading historical data...
Loading historical data...

Documentation

Showing up to 5 results
|